RH
94 94 95 96 95 94 83 68 58 63 74 64 88 63 50 55 51 48 51 54 56 61 64 67 66 65 60 52 60 64 70 76 83 59 55 63 66 70 69 87 80 93 96 81
95 95 98 99 98 94 81 78 74 69 61 80 88 60 57 55 50 54 52 56 57 60 68 69 64 63 64 60 60 68 66 78 80 50 51 55 69 72 74 82 88 85 94 75
96 98 98 99 96 95 80 69 84 81 85 79 58 59 60 58 54 53 61 59 55 60 65 66 74 73 65 66 66 75 66 76 68 78 59 63 78 76 75 79 93 83 83 68
98 98 99 97 94 96 76 79 80 80 85 82 72 67 59 60 60 53 57 61 62 61 74 74 82 75 68 63 70 74 69 80 81 75 70 73 74 79 78 88 83 90 71 80
98 99 99 99 94 93 80 82 82 87 90 76 61 75 62 65 61 57 64 64 69 67 70 64 77 78 80 74 75 81 82 86 91 90 88 90 95 85 84 86 87 88 84 88
98 99 99 98 95 86 88 96 86 76 91 76 80 80 61 58 58 61 57 62 65 72 70 71 74 68 69 79 79 78 82 94 97 89 93 91 77 66 82 79 75 75 78 61
98 99 99 98 95 93 91 96 79 82 90 91 80 70 62 62 64 63 62 60 66 61 67 63 62 60 59 74 81 80 98 96 97 97 89 93 58 62 57 69 65 63 68 70
97 98 98 95 94 96 97 97 80 88 98 96 85 69 68 69 68 73 68 78 77 67 69 86 80 80 66 77 95 94 86 97 98 98 89 82 61 56 71 76 69 67 77 81
98 98 97 96 95 95 97 99 91 82 92 86 68 72 74 84 84 83 85 84 81 75 94 88 86 81 75 76 73 88 93 93 94 98 97 98 70 58 61 78 89 77 76 64
98 98 98 96 95 97 96 99 93 84 92 84 79 82 80 77 86 85 91 85 85 86 99 98 94 90 84 89 84 83 98 98 99 99 98 90 68 62 65 87 77 73 69 73
97 97 98 96 95 94 94 99 98 90 96 91 86 77 81 86 86 90 83 86 92 98 99 99 98 96 91 92 79 82 75 84 95 98 99 95 65 70 75 66 77 73 82 87
98 97 98 98 96 95 90 97 98 96 92 80 96 91 86 72 68 81 90 82 86 95 98 99 99 99 99 91 91 82 88 78 83 79 85 69 58 65 64 71 79 85 93 92
99 98 98 98 96 98 92 98 99 97 100 93 91 86 82 84 81 74 89 96 82 90 89 98 99 94 96 99 98 91 84 79 90 81 73 75 71 64 69 82 89 88 91 93
100 99 99 99 97 95 92 96 98 98 100 100 96 84 83 80 85 84 80 81 93 94 98 99 100 100 89 99 90 96 90 88 92 91 76 78 74 82 93 95 90 90 90 83
99 98 98 99 98 95 97 98 98 96 95 100 100 91 84 81 84 86 87 88 94 99 100 100 100 100 99 100 99 100 87 88 96 86 68 79 85 93 92 88 89 87 84 77
99 99 99 98 98 96 98 99 97 98 97 100 100 93 91 86 83 88 92 94 96 99 99 100 99 89 94 100 100 76 73 70 69 77 72 84 91 87 83 86 84 76 76 82
99 99 98 99 98 98 98 98 95 98 96 100 100 100 94 89 91 97 96 96 97 98 100 100 100 98 96 100 94 70 66 72 76 74 80 92 90 86 74 70 67 67 67 69
99 99 99 99 98 98 99 99 98 98 99 100 100 100 98 91 99 100 99 100 99 99 99 100 100 99 100 100 89 84 75 72 74 84 85 89 73 66 58 55 61 67 74 80
99 99 98 98 98 100 100 98 96 98 97 100 100 100 100 94 99 99 99 99 100 98 100 100 99 100 99 90 78 78 77 85 87 85 76 58 56 55 57 56 59 74 82 88
98 97 98 100 100 98 97 95 100 100 100 99 100 99 100 96 100 100 100 100 100 97 98 96 100 99 76 75 78 91 84 74 70 72 67 68 71 67 66 62 68 82 89 92
97 100 100 100 98 96 98 100 100 100 100 100 98 99 100 97 99 100 100 100 99 100 94 97 99 97 83 75 69 64 64 62 61 61 61 59 64 71 77 77 77 87 91 95
92 97 97 98 97 99 99 100 99 100 98 99 99 99 99 100 98 99 99 99 99 97 95 99 97 90 79 72 73 71 73 70 65 64 66 68 73 77 84 85 84 86 92 94
86 95 99 94 99 99 99 99 99 99 99 99 100 100 100 99 99 99 99 100 97 98 98 97 95 85 69 66 67 66 68 73 76 67 66 70 76 80 89 86 86 89 90 88
90 95 99 96 99 99 96 95 96 97 100 100 100 99 99 99 98 99 97 96 98 98 100 95 94 76 66 65 73 75 71 80 82 76 78 82 85 85 84 88 88 91 90 86
94 84 95 99 96 98 100 100 100 100 100 100 99 99 97 99 97 94 95 95 91 90 91 95 91 76 74 74 70 71 83 84 86 82 87 87 87 89 88 84 89 92 91 91
93 94 98 99 98 99 98 100 100 99 100 97 96 97 98 98 96 97 96 97 99 90 96 94 92 76 77 76 78 80 82 86 84 83 87 87 90 90 86 86 88 89 92 92
88 99 96 99 97 95 96 98 99 97 95 95 95 95 87 93 98 100 98 96 91 93 94 93 84 76 75 77 81 85 86 84 88 88 88 88 88 92 95 94 88 89 90 93
Wind_Speed
10 12 12 13 15 15 8 4 4 3 2 6 1 3 1 0 3 6 5 5 4 3 3 4 2 2 2 5 2 3 2 4 3 4 1 1 2 3 4 6 3 2 3 8
10 11 12 14 13 11 4 4 1 2 4 4 2 1 3 4 4 5 3 3 4 4 3 4 3 3 2 5 3 2 1 3 4 10 6 5 4 1 4 5 3 6 3 8
9 10 12 14 13 7 5 4 3 6 6 1 6 4 2 4 4 5 6 4 5 5 5 6 2 2 3 5 3 6 6 2 6 6 8 5 5 4 4 5 3 4 12 18
9 11 13 14 13 5 4 4 1 2 1 5 4 4 2 3 3 3 5 5 4 4 3 3 2 2 5 4 4 4 4 2 5 6 10 8 11 12 8 9 8 7 15 9
8 11 14 14 14 4 6 5 5 4 2 2 4 4 1 3 2 3 2 6 2 3 4 5 4 3 2 5 2 2 3 3 0 4 5 5 8 11 11 9 7 11 14 16
7 10 14 15 15 4 4 0 2 6 5 3 5 3 3 4 5 5 3 8 5 3 4 4 1 4 1 1 1 2 0 4 3 7 4 9 8 5 5 4 6 6 6 10
5 8 11 12 14 7 4 2 4 6 2 3 3 1 2 4 2 7 3 5 5 3 4 4 5 6 6 1 3 3 5 4 2 4 6 2 7 3 7 7 10 9 7 6
2 6 9 11 13 10 4 2 4 5 2 2 3 5 5 3 4 4 3 3 1 4 6 5 7 7 7 4 5 2 4 5 2 3 3 6 13 6 2 3 7 3 3 3
2 5 7 9 11 11 4 3 2 5 8 5 3 4 2 4 2 4 3 2 3 7 5 5 4 3 5 5 5 5 5 5 4 2 4 6 9 3 1 2 7 3 1 11
3 2 6 7 9 11 4 3 2 5 5 3 4 3 6 5 3 3 2 3 3 3 3 3 4 4 2 2 2 2 2 1 4 3 4 10 11 6 1 3 6 4 4 8
4 2 4 7 8 10 4 1 4 4 4 3 4 3 5 3 3 5 4 5 4 3 3 4 4 3 6 2 4 6 5 4 5 3 3 10 3 1 4 7 3 5 4 3
6 4 0 4 7 9 4 3 2 2 5 3 1 3 1 4 7 6 1 3 4 5 5 1 3 3 2 5 4 1 4 9 4 9 9 5 4 8 7 5 6 5 2 4
7 6 5 3 4 8 5 3 2 5 4 4 3 2 5 1 3 3 5 3 3 3 3 5 2 3 4 4 6 3 5 4 5 2 6 8 12 13 7 5 4 7 7 3
8 7 6 6 5 5 5 3 0 5 4 4 6 4 4 2 1 2 3 5 5 5 3 3 3 3 5 4 5 6 7 2 3 7 13 14 12 3 3 5 5 5 2 8
10 9 7 6 7 6 4 2 1 2 5 4 4 5 4 3 1 5 3 5 5 3 2 2 4 2 2 2 1 3 6 7 5 14 14 9 8 3 4 6 2 6 8 9
11 10 9 8 10 7 3 3 1 2 4 4 2 3 4 6 5 2 1 3 3 3 4 4 3 3 4 3 3 6 7 9 14 12 8 5 4 6 5 3 6 7 8 9
14 13 12 12 12 3 3 5 2 3 3 4 3 4 3 3 4 3 2 3 1 3 3 3 3 3 4 2 8 9 12 8 5 4 2 2 2 3 0 5 7 7 6 6
15 14 13 11 10 8 2 1 2 3 5 3 2 3 3 3 2 2 2 2 2 1 2 1 1 2 1 4 3 5 5 6 5 6 7 6 5 5 5 4 5 8 8 7
15 14 17 5 2 2 1 6 5 3 3 3 3 4 3 1 2 1 2 2 0 1 1 2 2 1 4 3 7 7 8 4 3 6 7 8 7 5 7 6 7 6 8 6
18 4 4 1 2 8 5 4 2 4 3 3 1 2 2 1 1 2 3 2 1 2 2 2 2 2 3 5 4 5 7 8 6 7 5 4 5 7 7 6 6 7 8 7
3 4 2 1 2 2 4 3 1 1 1 2 1 0 3 1 2 2 1 2 1 2 4 0 1 2 0 4 3 4 5 5 4 3 4 6 7 8 8 8 6 6 7 6
4 7 4 2 3 3 4 2 1 1 3 1 2 1 1 1 1 2 0 2 1 4 1 0 3 3 1 0 2 4 4 5 6 5 7 8 8 9 8 8 9 8 7 8
3 5 4 2 3 2 4 7 3 2 3 3 2 2 1 1 3 2 2 2 4 1 1 4 4 2 2 2 3 5 6 5 6 8 7 8 8 9 5 9 9 9 10 11
4 3 4 2 2 1 2 1 3 2 2 2 2 2 2 2 2 1 3 1 0 0 1 6 2 2 2 3 3 4 7 7 7 9 8 8 8 10 11 8 9 8 11 13
3 3 4 2 1 0 1 2 2 1 2 2 3 3 3 2 3 0 2 1 3 4 5 4 4 3 1 3 4 7 7 7 7 7 7 8 9 8 12 11 7 7 9 10
4 4 4 0 1 1 1 1 2 1 2 2 3 3 3 1 3 3 5 5 6 5 4 4 1 2 4 6 6 7 7 8 9 8 7 8 7 8 12 13 11 11 8 11
4 1 1 3 1 4 3 2 1 2 2 2 3 3 8 2 2 3 5 7 5 4 3 3 4 5 7 8 7 7 7 8 7 7 7 8 8 7 6 10 14 9 9 8
Wind_Direction
336 335 341 350 350 344 49 95 63 297 60 54 20 97 80 273 350 38 65 88 87 82 56 59 84 116 41 8 2 43 357 135 294 253 169 271 94 115 100 110 299 219 162 268
327 333 346 355 346 2 116 92 197 318 95 113 350 244 66 74 42 29 67 74 60 50 73 88 51 64 4 12 67 103 174 1 5 345 16 6 85 185 103 94 77 221 215 264
323 341 347 350 343 1 86 88 53 339 46 61 120 113 67 97 32 62 68 84 70 71 45 19 107 45 351 351 46 70 90 116 155 196 238 235 258 198 188 147 214 245 239 272
338 339 350 345 345 17 87 39 219 182 277 351 88 81 101 107 86 71 41 40 58 121 85 34 49 9 339 356 6 54 89 205 188 242 259 277 278 276 257 204 226 223 268 253
347 343 348 348 348 1 75 121 126 29 66 5 80 10 40 123 112 80 54 117 101 94 134 164 212 181 199 240 9 77 21 261 296 274 314 304 275 254 249 262 245 237 257 268
355 352 353 350 353 21 93 290 43 101 320 42 78 235 157 151 116 25 132 146 103 74 186 190 215 202 11 32 169 174 348 124 65 277 333 323 329 258 184 222 233 206 251 274
358 358 356 353 4 33 116 161 104 82 266 94 154 178 88 121 108 137 126 113 104 212 82 70 32 47 26 337 289 183 137 97 112 260 349 343 245 271 223 217 265 269 266 284
342 0 2 2 7 19 88 121 103 111 100 190 5 102 106 84 43 66 108 41 39 109 51 46 16 346 16 341 29 105 130 126 174 234 221 293 301 309 53 175 262 271 217 251
287 6 10 9 11 15 84 67 95 98 117 246 162 128 139 152 118 21 93 69 45 66 83 73 131 232 225 307 333 67 60 70 117 143 248 251 238 255 20 130 292 228 195 336
226 334 6 17 18 18 81 61 43 88 102 253 137 160 172 131 87 130 318 173 33 31 87 102 152 240 210 241 194 266 1 312 211 213 248 273 247 267 23 79 266 206 239 289
215 252 345 9 18 18 69 136 19 102 111 266 188 165 127 102 100 138 210 54 352 73 92 132 198 146 228 171 233 191 189 182 213 153 209 280 213 229 148 250 258 277 270 285
198 203 194 20 19 14 57 69 1 21 94 203 311 279 246 162 180 136 11 181 166 177 92 156 106 206 182 185 252 75 267 194 199 184 217 223 234 242 262 288 265 284 176 73
187 186 175 141 65 37 71 111 356 60 58 340 28 288 344 50 190 160 123 301 180 172 146 147 179 214 128 188 225 203 265 199 222 329 242 265 292 301 295 9 56 62 84 148
180 174 167 154 124 61 63 78 117 80 103 108 281 328 285 316 187 149 134 145 87 91 91 132 162 182 183 210 221 191 210 148 241 251 278 280 274 340 55 81 90 62 329 258
184 183 176 155 139 104 78 69 191 150 127 187 265 297 270 353 329 218 157 136 132 138 117 128 209 208 113 217 54 215 200 233 230 269 266 274 297 117 75 80 59 241 256 288
171 168 164 164 155 137 78 356 279 179 112 94 330 285 7 2 31 52 180 134 132 139 159 206 240 267 161 195 223 237 224 232 246 269 302 317 119 118 144 188 248 276 288 284
164 166 163 169 172 136 156 189 210 177 87 94 306 302 330 11 36 37 32 32 145 169 204 204 199 219 187 204 265 268 277 258 297 283 287 129 96 106 155 323 315 301 292 306
157 160 164 154 124 110 159 15 44 129 94 88 192 259 4 24 45 358 335 54 21 288 262 20 129 347 119 256 298 340 309 291 308 49 66 106 101 39 5 317 309 325 313 308
137 130 121 97 60 128 141 108 85 59 114 175 139 146 227 311 81 126 19 59 126 306 234 211 108 225 223 349 313 312 327 292 111 99 80 60 50 341 307 300 308 296 294 293
118 100 69 78 249 127 114 25 27 27 11 44 204 125 178 171 26 3 61 37 317 282 252 333 190 252 68 10 5 17 40 55 64 67 46 355 318 286 270 258 269 253 264 280
38 76 91 224 51 71 38 63 138 172 287 124 229 175 135 344 133 170 113 164 158 264 277 242 282 268 248 326 40 55 67 85 120 152 212 248 278 298 295 288 270 266 267 267
157 114 103 77 53 56 117 155 51 203 222 174 171 195 118 34 55 93 62 150 125 244 323 98 258 241 161 31 12 32 17 18 5 342 321 316 311 301 293 288 287 286 254 267
57 58 65 86 8 128 195 179 182 197 175 177 160 89 94 67 46 80 123 169 220 2 64 232 227 165 104 346 353 359 2 350 323 319 316 310 304 307 279 289 280 277 281 279
68 107 109 127 171 249 163 136 139 206 135 132 108 97 101 53 72 77 110 240 194 348 248 239 252 210 296 355 357 354 311 301 297 302 298 295 290 289 289 272 267 274 282 286
74 68 133 156 206 161 80 105 88 32 119 106 89 69 81 79 87 8 83 142 241 225 228 224 223 244 316 316 299 289 286 294 292 279 279 281 288 289 292 296 277 264 271 280
75 69 80 164 80 130 116 122 125 168 117 99 65 103 69 262 131 154 195 169 224 249 216 230 266 284 274 268 273 277 278 276 277 282 278 284 283 287 295 302 299 288 274 277
68 35 91 108 129 183 189 144 159 149 88 143 99 117 213 94 62 241 179 198 215 201 232 221 218 235 258 266 275 276 271 276 276 280 287 284 285 286 292 298 305 296 283 269